Flight Track Log - Related Links

Times and Time Zones

All times are in EDT time to prevent confusion due to time zone crossing. See the FDX736 flight status page for this flight to view local times or setup timezone preferences in your user account.

Time Position Orientation Groundspeed Altitude Reporting Facility
EDT Latitude Longitude Course Direction KTS MPH feet Rate Location/Type
17:40 35.0333 -89.9833 192° South 159 183 1,000  Level KMEM
17:41 34.9667 -90.0000 192° South 220 253 3,200 2,500 Climbing KMEM
17:42 34.9333 -90.0667 239° Southwest 280 322 6,000 3,158 Climbing KMEM
17:43 34.9500 -90.1333 287° West 272 313 9,200 2,420 Climbing KMEM
17:44 35.0072 -90.2175 310° West 336 387 10,800 1,920 Climbing Memphis Center
17:45 35.1075 -90.1997 North 347 399 13,200 2,550 Climbing Memphis Center
17:46 35.2136 -90.1742 11° North 377 434 15,900 2,450 Climbing Memphis Center
17:47 35.3242 -90.1508 10° North 397 457 18,100 2,150 Climbing Memphis Center
17:48 35.4392 -90.1914 344° North 390 449 20,200 2,100 Climbing Memphis Center
17:49 35.5475 -90.2447 338° Northwest 397 457 22,300 2,000 Climbing Memphis Center
17:50 35.6561 -90.2983 338° Northwest 415 478 24,200 1,700 Climbing Memphis Center
17:51 35.7500 -90.3519 335° Northwest 416 479 25,700 1,600 Climbing Memphis Center
17:52 35.8625 -90.4133 336° Northwest 422 486 27,400 1,550 Climbing Memphis Center
17:53 35.9772 -90.4725 337° Northwest 437 503 28,800 1,750 Climbing Memphis Center
17:54 36.0917 -90.5317 337° Northwest 437 503 30,900 2,050 Climbing Memphis Center
17:55 36.2042 -90.5911 337° Northwest 437 503 32,900 1,550 Climbing Memphis Center
17:56 36.3167 -90.6531 336° Northwest 437 503 34,000 550 Climbing Memphis Center
17:57 36.4250 -90.7103 337° Northwest 437 503 34,000  Level Memphis Center
17:58 36.5394 -90.7703 337° Northwest 437 503 34,000 892 Level Memphis Center
18:00 36.7797 -90.8956 337° Northwest 431 496 36,900 1,218 Climbing Kansas City Center
18:01 36.9136 -90.9672 337° Northwest 434 499 38,000 524 Climbing Kansas City Center
18:02 37.0267 -91.0278 337° Northwest 439 505 38,000  Level Kansas City Center
18:03 37.1444 -91.0936 336° Northwest 439 505 38,000  Level Kansas City Center
18:04 37.2564 -91.1539 337° Northwest 438 504 38,000  Level Kansas City Center
18:05 37.3711 -91.2136 338° Northwest 441 507 38,000  Level Kansas City Center
18:06 37.4825 -91.2747 336° Northwest 439 505 38,000  Level Kansas City Center
18:07 37.5944 -91.3369 336° Northwest 438 504 38,000  Level Kansas City Center
18:08 37.7042 -91.3981 336° Northwest 435 501 38,000  Level Kansas City Center
18:09 37.8150 -91.4597 336° Northwest 435 501 38,000  Level Kansas City Center
18:10 37.9267 -91.5208 337° Northwest 436 502 38,000  Level Kansas City Center
18:11 38.0631 -91.5961 337° Northwest 440 506 38,000  Level Kansas City Center
18:12 38.1706 -91.6575 336° Northwest 435 501 38,000  Level Kansas City Center
18:13 38.2822 -91.7197 336° Northwest 436 502 38,000  Level Kansas City Center
18:19 38.8880 -92.0620 336° Northwest 445 512 38,000  Level FlightAware
18:19 38.9640 -92.1060 336° Northwest 446 513 38,000  Level FlightAware
18:20 39.0330 -92.1460 336° Northwest 447 514 38,000  Level FlightAware
18:21 39.1210 -92.1960 336° Northwest 446 513 38,000  Level FlightAware
18:21 39.1830 -92.2330 335° Northwest 446 513 38,000  Level FlightAware
18:22 39.2830 -92.2890 337° Northwest 446 513 38,000  Level FlightAware
18:23 39.3610 -92.3350 335° Northwest 445 512 38,000  Level FlightAware
18:23 39.4370 -92.3790 336° Northwest 444 511 38,000  Level FlightAware
18:24 39.5170 -92.4260 336° Northwest 444 511 38,000  Level FlightAware
18:25 39.5820 -92.4640 336° Northwest 443 510 38,000  Level FlightAware
18:26 39.6780 -92.5200 336° Northwest 443 510 38,000  Level FlightAware
18:26 39.7490 -92.5620 336° Northwest 439 505 38,000 -706 Level FlightAware
18:27 39.8370 -92.6140 336° Northwest 439 505 37,000 -1,129 Descending FlightAware
18:28 39.9120 -92.6570 336° Northwest 431 496 36,400 -1,050 Descending FlightAware
18:28 39.9830 -92.7000 335° Northwest 430 495 35,600 -1,200 Descending FlightAware
18:29 40.0520 -92.7410 336° Northwest 430 495 34,800 -1,906 Descending FlightAware
18:30 40.1350 -92.7900 336° Northwest 430 495 32,900 -2,894 Descending FlightAware
18:30 40.2070 -92.8330 335° Northwest 435 501 30,700 -3,529 Descending FlightAware
18:31 40.2940 -92.8850 335° Northwest 441 507 27,900 -3,529 Descending FlightAware
18:32 40.3660 -92.9280 336° Northwest 435 501 25,700 -2,259 Descending FlightAware
18:33 40.4440 -92.9750 335° Northwest 430 495 24,700 -706 Descending FlightAware
18:33 40.5050 -93.0130 335° Northwest 430 495 24,700  Level FlightAware
18:34 40.5660 -93.0510 335° Northwest 430 495 24,700  Level FlightAware
18:35 40.6280 -93.0880 336° Northwest 430 495 24,700  Level FlightAware
18:35 40.6890 -93.1260 335° Northwest 430 495 24,700  Level FlightAware
18:36 40.7660 -93.1730 335° Northwest 430 495 24,700 -7,446 Level FlightAware
18:37 40.8300 -93.2047 335° Northwest 382 440 14,400 -8,617 Descending Minneapolis Center
18:38 40.9219 -93.2636 334° Northwest 371 427 11,200 -1,659 Descending Minneapolis Center
18:39 41.0208 -93.3236 335° Northwest 364 419 11,000 -488 Descending Minneapolis Center
18:40 41.1031 -93.3939 327° Northwest 353 406 10,200 -541 Descending Minneapolis Center
18:41 41.1586 -93.4706 314° West 285 328 9,900 -621 Descending Minneapolis Center
18:41 41.1872 -93.4919 331° Northwest 259 298 9,300 -1,355 Descending Minneapolis Center
18:42 41.2108 -93.5406 303° West 250 288 8,500 -1,300 Descending Minneapolis Center
18:42 41.2344 -93.5567 333° Northwest 248 285 8,000 -1,180 Descending Minneapolis Center
18:43 41.2569 -93.6050 302° West 244 281 7,300 -1,180 Descending Minneapolis Center
18:43 41.2797 -93.6217 331° Northwest 242 278 6,800 -1,065 Descending Minneapolis Center
18:44 41.3000 -93.6642 302° West 225 259 6,200 -984 Descending Minneapolis Center
18:44 41.3242 -93.6700 350° North 211 243 5,800 -984 Descending Minneapolis Center
18:45 41.3458 -93.6961 318° Northwest 187 215 5,200 -1,000 Descending Minneapolis Center
18:45 41.3694 -93.6992 354° North 185 213 4,800 -1,082 Descending Minneapolis Center
18:46 41.3947 -93.7322 316° Northwest 187 215 4,100 -982 Descending Minneapolis Center
18:46 41.4108 -93.7314 North 189 217 3,900 -871 Descending Minneapolis Center
18:47 41.4414 -93.7672 319° Northwest 190 219 3,200 -785 Descending Minneapolis Center
18:48 41.4803 -93.7561 12° North 179 206 2,500 -706 Descending Minneapolis Center
18:49 41.5117 -93.7000 53° Northeast 128 147 1,600 -732 Descending Minneapolis Center
18:50 41.5231 -93.6778 56° Northeast 121 139 1,000 -330 Descending Minneapolis Center
18:51 41.5394 -93.6481 54° Northeast 121 139 1,000  Level Minneapolis Center

Login

Don't have an account? Register now (free) for customized features, flight alerts, and more!